Location: Caracas
(10.5033°N, 66.8422°W)
Time: 20:50:59
(UTC-04:00)

N. Korean satellite - Pass Details

Date: 18 November 2017
Orbit: 460 x 515 km, 97.2° (Epoch: 17 November)

Event Time Altitude Azimuth Distance (km) Brightness Sun altitude
Rises 19:38:21 0° 206° (SSW) 2,470 10.8 -23.5°
Reaches altitude 10° 19:41:40 10° 242° (WSW) 1,598 10.2 -24.3°
Maximum altitude 19:42:47 11° 261° (W) 1,521 10.1 -24.6°
Drops below altitude 10° 19:43:54 10° 281° (W) 1,601 10.0 -24.8°
Sets 19:47:14 0° 316° (NW) 2,482 10.5 -25.6°
